EHI
32 32 36 32 20 11 5 4 5 4 1 0 0 1 3 7 9 11 12 10 8 6 7 8 8 6 3 3 4 4 4 5 5 5 4 3 2 1 1 1 1 0 0
32 29 32 31 21 11 6 4 5 4 2 0 0 0 2 4 6 8 9 9 7 7 6 6 6 5 3 3 3 3 2 2 2 3 3 2 1 1 3 3 2 1 0
30 27 27 29 23 13 7 6 5 4 2 1 0 0 1 1 2 3 4 5 6 7 6 5 4 3 3 3 2 2 1 0 0 1 2 1 0 2 3 4 3 2 1
33 30 28 28 24 16 10 7 6 5 4 1 0 1 2 2 1 1 1 2 4 6 6 4 3 3 3 3 2 2 1 0 0 1 2 1 1 2 2 2 2 2 1
38 36 31 28 25 18 13 9 7 6 5 3 2 2 4 4 3 2 2 2 3 4 4 4 3 3 3 3 1 1 1 0 1 2 1 1 2 2 1 1 1 1 0
39 38 34 30 27 21 16 12 8 7 7 5 5 5 6 6 4 3 3 3 3 3 3 4 3 3 3 3 1 0 1 1 1 1 1 1 2 2 1 0 0 0 0
36 38 38 34 30 24 20 15 11 10 10 9 8 7 7 7 6 4 3 3 3 3 3 2 2 3 3 2 1 1 2 3 2 1 1 2 3 3 1 0 0 0 0
32 37 40 37 32 25 22 19 14 14 14 12 10 10 10 10 8 6 4 3 3 4 3 2 1 1 2 1 1 1 3 4 3 1 1 3 4 4 1 0 0 0 0
30 35 37 35 30 26 23 19 16 15 15 14 13 13 13 11 9 7 4 3 4 5 4 3 2 2 1 0 0 1 3 4 2 0 1 2 3 3 1 1 0 0 0
29 31 33 32 30 26 22 19 16 14 14 14 13 12 11 9 7 6 4 4 5 6 6 5 5 4 2 1 1 1 3 3 2 0 0 1 3 2 1 1 0 0 0
25 27 28 30 30 24 20 18 17 15 14 13 11 9 8 6 5 4 5 6 7 7 6 5 6 5 2 1 2 3 3 2 1 0 1 4 5 4 2 1 0 0 0
24 26 28 31 30 24 21 22 20 17 16 14 12 10 8 6 4 3 6 9 8 6 5 5 5 4 2 0 2 4 3 1 0 0 3 7 8 7 5 3 1 1 0
28 30 32 35 34 30 28 27 24 22 22 20 17 16 12 9 8 7 9 9 6 4 4 5 5 3 1 0 1 3 2 1 0 1 4 9 10 8 6 4 3 2 1
35 36 37 40 42 40 38 33 29 28 28 26 23 21 17 14 13 14 14 10 4 4 5 5 4 2 1 0 1 2 2 2 1 1 4 8 10 9 7 4 3 3 3
41 43 44 45 48 48 45 39 34 32 31 29 28 25 20 17 17 18 17 13 7 6 7 6 4 2 0 0 0 2 3 3 2 1 3 7 10 9 7 5 4 3 3
48 50 48 47 49 51 48 43 38 34 31 30 31 27 21 17 18 20 18 14 10 9 9 8 5 3 2 1 2 3 4 5 4 3 3 6 7 7 7 6 5 4 4
54 54 50 47 50 52 50 44 38 33 29 31 31 27 19 16 19 19 16 13 11 11 12 12 9 6 4 4 5 5 6 6 5 4 4 4 4 5 6 6 6 5 5
59 59 53 49 52 54 50 42 35 32 30 30 30 27 21 18 20 19 15 12 11 12 14 14 12 8 6 6 5 5 5 5 5 5 5 4 3 4 5 6 6 6 6
63 63 58 54 56 55 47 39 33 31 29 27 27 28 25 22 22 20 16 14 14 15 14 14 14 11 8 6 3 2 2 3 4 5 5 3 2 3 4 5 6 7 7
65 66 62 58 58 55 47 39 34 29 27 25 25 27 27 25 24 22 18 16 17 17 14 14 16 14 11 6 3 1 1 1 3 4 4 2 1 2 3 4 5 6 7
66 66 63 58 57 56 52 44 37 31 27 25 24 26 28 27 25 23 19 18 18 17 16 16 16 15 11 7 5 4 3 2 3 4 4 2 1 2 3 4 4 5 5
64 63 60 56 55 55 53 48 42 37 31 26 26 28 29 26 24 23 21 18 17 17 17 16 17 15 11 8 7 7 5 4 3 3 3 2 1 2 3 4 5 5 5
59 57 54 55 54 51 49 47 44 39 32 29 29 30 30 28 25 23 20 17 17 18 19 19 18 16 12 9 8 7 6 5 4 3 1 1 1 1 3 4 5 6 6
51 49 51 55 54 48 45 45 43 37 31 29 30 31 32 32 29 24 19 17 16 18 19 19 19 16 11 7 7 6 5 4 4 3 2 1 1 1 2 3 5 7 8
45 45 48 53 53 47 43 41 38 33 29 27 28 31 34 34 31 26 22 20 19 17 16 18 20 15 9 6 4 4 3 2 2 2 2 1 1 3 4 5 6 8 8
42 43 45 50 52 47 41 38 33 30 28 28 29 32 34 34 30 27 25 24 22 18 15 18 20 14 8 6 4 3 2 1 0 1 1 0 1 4 6 7 8 8 6
Wind_Speed
15 15 15 13 12 11 11 10 10 10 10 10 10 10 10 10 11 11 12 12 13 14 15 14 15 14 14 14 13 13 13 13 13 13 13 13 12 12 12 11 11 10 13
18 16 15 13 12 11 11 10 10 10 10 10 10 10 10 10 10 11 11 12 13 14 14 14 14 14 14 13 12 12 11 11 11 11 12 11 12 11 11 11 10 9 12
17 15 14 13 12 11 11 10 10 9 9 9 9 9 10 10 10 10 11 11 12 13 13 14 14 13 13 12 11 10 10 9 8 9 8 6 8 11 11 11 12 12 11
16 14 13 13 12 11 10 9 9 9 9 8 8 9 9 9 9 10 10 10 11 12 12 13 12 12 12 10 9 9 8 6 6 5 3 5 6 11 11 11 11 11 11
15 14 14 14 12 11 10 9 9 9 8 8 8 8 8 8 9 9 9 10 10 10 11 11 11 10 10 9 8 7 6 5 4 3 4 5 6 10 11 11 10 10 10
16 15 14 14 12 11 10 9 9 8 8 8 8 8 8 8 8 8 9 9 9 10 10 10 10 9 8 7 6 5 4 3 2 2 4 6 7 10 11 10 9 9 9
15 15 14 13 13 11 10 9 9 8 8 7 7 8 7 7 7 7 8 9 9 9 10 9 9 8 7 6 5 4 3 1 1 3 5 6 8 10 10 9 9 8 8
15 15 13 14 13 11 10 9 8 8 7 7 7 7 7 7 7 7 7 8 8 9 9 9 8 7 6 5 3 3 2 1 3 5 6 7 9 10 9 9 8 7 7
15 14 12 12 11 11 10 9 9 8 8 7 7 7 7 7 7 7 7 7 8 8 8 8 7 6 5 3 2 1 1 1 1 2 6 6 9 10 10 8 8 7 6
12 13 11 11 10 10 9 10 9 9 8 8 7 7 7 7 7 7 7 7 8 8 7 7 6 6 4 3 3 3 2 1 2 4 5 6 10 10 9 8 7 7 6
9 10 10 10 9 9 9 10 9 9 8 8 7 8 7 5 6 6 7 9 9 8 8 7 6 6 5 5 5 5 4 2 3 5 5 9 10 9 8 8 7 6 6
9 8 8 8 8 7 6 7 6 6 6 5 4 5 4 2 3 5 8 9 9 9 8 8 7 6 5 3 5 5 2 2 4 4 6 10 10 9 8 7 7 6 6
9 7 7 6 5 5 5 5 3 3 4 4 4 4 3 2 3 4 4 5 6 7 5 6 6 4 3 2 1 2 2 2 3 4 6 10 10 9 8 7 6 6 5
9 8 8 7 5 4 3 3 3 3 3 3 3 3 3 2 2 2 2 3 4 3 3 3 3 2 2 2 2 1 2 2 4 4 6 10 10 9 8 7 6 5 5
7 7 7 7 6 4 3 1 3 2 3 3 3 2 3 2 2 2 1 2 2 2 3 2 2 2 1 1 1 2 2 3 5 5 5 9 10 8 7 6 6 5 5
7 7 7 7 6 5 3 2 2 2 2 3 3 3 2 2 1 2 2 1 1 1 1 2 2 2 1 1 0 1 2 3 4 5 5 6 8 8 7 6 6 5 5
7 7 6 7 7 5 4 3 3 2 3 3 3 3 2 2 2 2 2 2 2 2 2 1 1 2 1 1 1 1 1 2 3 4 5 4 5 7 7 6 6 6 6
7 7 6 6 7 6 4 2 1 1 2 3 3 3 3 3 2 2 2 2 2 2 2 2 1 1 1 1 1 0 2 2 3 3 3 4 4 4 6 7 6 6 6
6 6 6 5 6 5 5 3 2 1 1 2 2 2 3 3 3 2 2 2 2 2 2 2 2 1 1 1 1 1 1 2 2 3 3 3 3 4 4 6 7 7 6
7 6 6 5 5 5 4 3 2 2 2 2 2 2 3 3 3 2 2 2 2 2 2 1 2 1 1 1 1 1 1 1 2 2 3 3 2 4 4 5 4 5 7
6 6 6 5 5 4 4 3 3 3 2 2 2 3 3 3 3 2 2 2 2 2 2 3 2 2 1 1 1 1 0 1 1 1 2 2 2 2 4 4 4 3 3
6 6 6 6 5 4 3 2 3 3 2 2 2 3 3 3 3 3 3 2 2 2 2 2 2 1 2 2 1 1 1 1 1 2 2 3 2 2 2 3 3 3 3
6 5 5 5 5 5 4 3 2 2 1 2 3 3 3 3 4 2 4 3 2 2 3 3 3 2 2 1 1 1 1 1 1 1 2 1 2 2 2 2 3 3 3
5 5 5 5 5 4 3 3 4 3 3 3 2 3 3 4 4 3 3 3 3 2 3 4 3 2 2 1 1 1 1 1 1 1 0 1 2 2 1 2 2 2 2
5 5 5 5 5 5 4 3 3 3 3 2 3 3 3 4 4 3 3 3 2 2 3 3 3 2 2 2 1 1 1 0 1 2 1 1 1 1 1 1 1 2 2
4 5 5 6 5 4 4 3 3 3 3 3 3 3 2 2 3 4 3 3 2 2 2 2 2 2 2 1 1 1 1 1 1 1 2 2 1 1 1 1 1 2 2
Wind_Direction
109 116 116 112 109 107 106 103 98 93 89 86 85 84 84 82 80 81 83 85 91 97 100 99 95 95 93 93 92 90 91 91 89 95 101 104 109 112 113 111 110 109 109
113 117 116 112 111 111 109 105 102 97 94 91 91 89 87 86 84 83 85 89 94 100 102 103 100 98 95 95 97 96 94 93 95 99 102 103 104 106 107 104 98 108 112
113 119 118 113 112 112 112 109 106 102 99 97 96 95 92 89 88 88 90 94 99 103 105 104 104 103 101 100 100 103 101 99 103 106 106 101 105 106 108 107 106 108 111
114 120 117 117 115 114 115 113 111 109 105 103 103 101 98 94 92 91 93 97 102 105 107 108 107 106 106 106 106 108 112 112 112 114 105 105 107 109 109 112 112 113 114
113 114 118 122 119 118 119 119 117 115 113 111 110 106 102 99 97 96 96 100 104 107 108 110 110 109 111 112 115 118 124 124 114 116 93 92 98 113 114 115 116 118 119
119 118 123 125 123 122 123 123 122 120 118 116 114 111 107 103 101 101 100 102 106 108 108 109 110 111 113 115 119 122 123 119 107 100 102 109 109 117 118 120 121 122 123
119 122 133 133 130 130 130 128 126 124 122 120 118 117 114 111 108 106 105 106 109 110 110 110 111 113 114 115 120 126 121 105 116 83 95 104 114 120 122 125 124 125 128
121 124 133 137 136 137 136 132 131 128 127 125 123 124 120 119 119 115 113 113 112 114 115 115 114 115 117 119 121 123 107 39 87 96 94 99 119 125 126 129 128 129 135
125 128 138 143 143 143 142 139 139 138 137 137 136 135 134 133 131 129 125 125 122 120 122 124 125 125 132 140 148 150 127 53 58 101 103 102 121 124 126 129 128 128 133
127 131 139 144 148 152 148 148 146 145 150 152 152 152 152 152 149 148 142 138 135 133 134 135 138 143 152 174 200 225 238 258 145 111 102 112 119 122 124 124 124 125 125
126 129 142 145 153 158 153 150 155 157 161 162 167 172 174 176 163 159 149 147 149 150 153 154 157 164 175 198 220 235 245 226 117 101 98 118 124 124 125 127 125 127 127
137 139 142 144 150 153 147 144 162 166 163 180 167 176 191 170 148 141 149 157 162 163 167 174 176 185 204 204 214 225 229 186 115 110 114 124 122 120 122 128 128 129 133
144 140 131 137 139 137 134 147 163 157 157 177 168 173 167 156 149 144 151 161 169 175 180 174 190 205 203 198 197 201 194 113 103 108 119 126 125 126 126 127 128 130 134
146 147 142 139 133 126 127 147 148 146 151 159 156 163 159 163 160 157 161 162 172 173 170 179 195 196 201 191 215 180 107 103 104 108 130 134 132 132 132 130 130 132 136
139 140 135 131 125 121 116 133 134 137 141 141 142 159 142 151 158 149 146 158 174 165 164 167 174 173 182 163 168 112 112 113 119 121 129 142 143 144 143 142 145 147 151
143 141 138 139 136 137 138 139 126 137 127 135 134 132 144 137 132 140 148 150 156 128 125 147 154 151 149 131 140 105 101 112 114 123 132 141 151 155 156 155 154 156 159
143 141 143 147 140 144 152 166 150 147 145 140 129 131 140 141 147 141 152 174 171 147 137 134 157 129 160 146 114 102 101 108 128 136 145 151 153 159 161 159 159 160 160
145 141 152 153 142 146 144 140 131 141 131 126 128 141 156 152 159 165 169 180 181 163 147 153 162 136 128 119 132 181 135 149 149 161 154 155 156 157 166 169 168 164 164
138 140 151 145 143 148 146 151 148 122 115 122 128 144 159 163 171 173 161 166 183 160 157 176 141 144 142 151 178 195 159 164 169 165 153 150 152 158 153 168 174 175 177
145 146 149 153 149 151 152 159 158 150 157 146 145 147 154 168 176 169 156 166 172 156 157 145 123 129 157 189 208 143 136 174 167 157 165 149 167 163 153 153 168 183 185
142 150 157 165 161 161 164 168 171 178 180 165 162 149 155 168 175 169 152 171 176 160 168 168 149 179 184 176 134 133 169 204 177 171 164 165 171 168 163 160 167 166 178
146 151 160 166 166 171 171 174 178 173 178 170 160 151 162 170 177 180 158 182 180 157 161 166 160 181 198 176 166 171 181 153 265 198 171 182 169 162 170 170 156 169 169
149 155 160 157 162 175 176 182 179 170 176 180 172 161 171 176 179 177 163 181 183 171 165 177 177 191 206 206 164 163 182 176 173 197 201 156 153 171 175 154 155 155 160
150 150 147 144 150 158 165 188 189 188 194 193 182 171 176 175 170 174 168 173 183 177 161 187 181 201 189 207 214 234 263 118 149 155 236 176 185 193 176 170 158 149 147
144 147 151 145 152 158 173 188 200 208 200 192 175 173 178 170 171 169 164 169 178 175 172 190 159 187 190 198 221 219 244 218 207 152 183 206 218 180 188 173 153 149 150
136 137 144 149 154 162 174 185 197 213 207 186 172 162 171 168 169 173 171 163 172 172 174 169 179 192 200 213 231 221 197 215 209 178 178 193 197 209 195 174 168 174 159